Location: Street
(51.1247°N, 2.7429°W)
Time: 02:15:57
(UTC+00:00)

deb Explorer IX - Pass Details

Date: 08 December 2020
Orbit: 536 x 1104 km, 38.8° (Epoch: 20 January)

Event Time Altitude Azimuth Distance (km) Brightness Sun altitude
Rises 12:55:48 0° 221° (SW) 3,912 ? 15.2°
Reaches altitude 10° 12:59:16 10° 207° (SSW) 2,943 ? 15.1°
Maximum altitude 13:04:29 22° 161° (SSE) 2,152 ? 14.9°
Drops below altitude 10° 13:09:27 10° 114° (ESE) 2,787 ? 14.6°
Sets 13:12:38 0° 100° (E) 3,652 ? 14.5°
